Location: ??
(35.4032°N, 139.3073°E)
Time: 12:35:14
(UTC+00:00)

SL-16 R/B - Pass Details

Date: 13 April 2024
Orbit: 985 x 1006 km, 99.7° (Epoch: 26 May)

Event Time Altitude Azimuth Distance (km) Brightness Sun altitude
Exits shadow 17:51:21 61° 278° (W) 1,118 2.5 -26.9°
Drops below altitude 10° 17:57:04 10° 339° (NNW) 2,765 5.0 -26.0°
Sets 17:59:35 0° 342° (NNW) 3,721 5.7 -25.6°
